EHI
10 8 7 5 1 0 0 0 0 0 0 0 0 0 0 0 0 0 0 0 0 0 0 0 0 0 0 0 0 0 0 0 0 0 0 0 0 0 0 0 0 0 0
23 12 5 4 2 1 0 0 0 0 0 0 0 0 0 0 0 0 0 0 0 0 0 0 0 0 0 0 0 0 0 0 0 0 0 0 0 0 0 0 0 0 0
36 16 4 4 3 1 0 0 0 0 0 0 0 0 0 0 0 0 0 0 0 0 0 0 0 0 0 0 0 0 0 0 0 0 0 0 0 0 0 0 0 0 0
29 14 4 4 3 1 0 0 0 0 0 0 0 0 0 0 0 0 0 0 0 0 0 0 0 0 0 0 0 0 0 0 0 0 0 0 0 0 0 0 0 0 0
14 9 6 6 5 2 1 0 0 0 0 0 0 0 0 0 0 0 0 0 0 0 0 0 0 0 0 0 0 0 0 0 0 0 0 0 0 0 0 0 0 0 0
20 18 14 12 9 4 1 0 0 0 0 0 0 0 0 0 0 0 0 0 0 0 0 0 0 0 0 0 0 0 0 0 0 0 0 0 0 0 0 0 0 0 0
52 46 31 23 17 5 1 0 0 0 0 0 0 0 0 0 0 0 0 0 0 0 0 0 0 0 0 0 0 0 0 0 0 0 0 0 0 0 0 0 0 0 0
84 70 44 28 17 5 2 1 0 0 0 0 0 0 0 0 0 0 0 0 0 0 0 0 0 0 0 0 0 0 0 0 0 0 0 0 0 0 0 0 0 0 0
94 77 45 21 11 4 3 2 1 0 0 0 0 0 0 0 0 0 0 0 0 0 0 0 0 0 0 0 0 0 0 0 0 0 0 0 0 0 0 0 0 0 0
79 69 39 14 7 4 3 2 1 0 0 0 0 0 0 0 0 0 0 0 0 0 0 0 0 0 0 0 0 0 0 0 0 0 0 0 0 0 0 0 0 0 0
44 48 34 16 13 13 9 3 0 0 0 0 0 0 0 0 0 0 0 0 0 0 0 0 0 0 0 0 0 0 0 0 0 0 0 0 0 0 0 0 0 0 0
15 23 29 30 37 42 30 10 0 0 0 0 0 0 0 0 0 0 0 0 0 0 0 0 0 0 0 0 0 0 0 0 0 0 0 0 0 0 0 0 0 0 0
6 11 30 57 73 77 58 22 2 0 0 0 0 0 0 0 0 0 0 0 0 0 0 0 0 0 0 0 0 0 0 0 0 0 0 0 0 0 0 0 0 0 0
9 18 44 77 94 96 76 35 6 1 0 0 0 0 0 0 0 0 0 0 0 0 0 0 0 0 0 0 0 0 0 0 0 0 0 0 0 0 0 0 0 0 0
16 37 67 89 99 100 86 51 16 3 1 0 0 0 0 0 0 0 0 0 0 0 0 0 0 0 0 0 0 0 0 0 0 0 0 0 0 0 0 0 0 0 0
15 43 78 95 99 100 95 70 32 8 2 0 0 0 0 0 0 0 0 0 0 0 0 0 0 0 0 0 0 0 0 0 0 0 0 0 0 0 0 0 0 0 0
6 27 64 90 98 100 99 85 53 22 6 1 0 0 0 0 0 0 0 0 0 0 0 0 0 0 0 0 0 0 0 0 0 0 0 0 0 0 0 0 0 0 0
0 9 35 72 94 100 99 92 70 38 16 6 2 0 0 0 0 0 0 0 0 0 0 0 0 0 0 0 0 0 0 0 0 0 0 0 0 0 0 0 0 0 0
0 1 17 52 84 97 98 92 75 54 36 20 7 1 0 0 0 0 0 0 0 0 0 0 0 0 0 0 0 0 0 0 0 0 0 0 0 0 0 0 0 0 0
0 0 9 34 67 90 97 93 81 69 55 32 10 1 0 0 0 0 0 0 0 0 0 0 0 0 0 0 0 0 0 0 0 0 0 0 0 0 0 0 0 0 0
0 0 3 15 44 76 94 96 87 71 48 22 6 1 0 0 0 0 0 0 0 0 0 0 0 0 0 0 0 0 0 0 0 0 0 0 0 0 0 0 0 0 0
0 0 0 4 24 59 88 93 76 48 21 6 1 0 0 0 0 0 0 0 0 0 0 0 0 0 0 0 0 0 0 0 0 0 0 0 0 0 0 0 0 0 0
0 0 0 2 17 52 82 80 49 18 4 0 0 0 0 0 0 0 0 0 0 0 0 0 0 0 0 0 0 0 0 0 0 0 0 0 0 0 0 0 0 0 0
0 0 0 5 26 59 81 64 26 3 0 0 0 0 0 0 0 0 0 0 0 0 0 0 0 0 0 0 0 0 0 0 0 0 0 0 0 0 0 0 0 0 0
0 0 2 13 41 71 76 49 15 0 0 0 0 0 0 0 0 0 0 0 0 0 0 0 0 0 0 0 0 0 0 0 0 0 0 0 0 0 0 0 0 0 0
0 1 4 20 51 75 69 39 10 0 0 0 0 0 0 0 0 0 0 0 0 0 0 0 0 0 0 0 0 0 0 0 0 0 0 0 0 0 0 0 0 0 0
Wind_Speed
10 14 19 18 17 15 13 12 11 9 8 9 10 11 13 14 14 14 13 12 12 11 11 11 11 14 15 15 14 13 11 9 7 5 4 5 6 8 8 7 5 3 4
15 16 18 19 17 16 14 13 11 9 9 10 11 12 13 13 13 13 12 12 12 12 12 12 12 13 13 13 12 11 9 8 5 3 2 1 3 8 9 8 7 4 6
17 17 16 18 17 16 15 13 11 10 11 13 12 12 12 12 12 12 12 13 13 12 12 12 12 13 12 12 10 9 8 6 4 6 7 2 4 8 8 8 7 5 4
17 15 15 18 18 16 15 14 12 11 12 12 12 11 11 11 11 12 12 12 12 12 12 11 11 11 11 10 9 8 7 4 5 7 4 3 4 8 7 6 6 6 5
16 14 16 19 18 16 15 14 13 11 11 11 11 10 10 10 10 10 11 11 11 10 10 9 9 9 9 8 7 7 6 5 8 8 4 3 6 7 6 5 4 5 5
14 15 17 17 17 16 15 14 13 11 11 11 10 10 9 7 7 8 11 11 9 8 7 7 7 7 7 6 7 6 5 7 9 4 2 4 5 6 5 5 5 5 6
13 17 17 18 18 17 16 14 13 11 10 10 9 9 9 7 5 8 11 10 8 7 6 7 7 7 7 7 7 5 3 7 7 4 3 6 5 7 6 6 6 6 7
14 16 17 19 17 16 16 15 13 11 10 9 9 9 9 7 4 10 12 11 8 6 6 7 7 8 8 7 5 4 4 6 7 5 5 7 8 9 8 8 8 8 9
14 15 13 13 13 14 15 15 13 11 9 9 9 10 9 8 8 12 12 11 8 7 7 8 9 8 7 6 5 4 6 7 5 3 7 5 9 9 9 8 9 9 10
11 13 13 12 11 10 10 14 14 11 9 9 10 11 9 8 10 12 11 10 10 9 9 8 7 6 6 5 3 4 7 8 3 4 5 6 10 10 9 8 8 9 10
7 11 13 12 12 11 10 11 12 12 10 9 9 10 8 5 6 7 10 10 10 10 8 7 5 5 4 2 1 5 6 3 5 5 4 8 10 9 9 10 12 13 14
5 6 10 12 12 11 10 9 7 7 8 7 6 7 5 4 5 9 10 10 10 10 8 5 4 2 2 1 2 4 2 5 4 5 5 12 11 11 14 15 15 16 16
9 6 5 9 10 10 8 7 5 5 6 7 8 8 5 5 5 6 4 5 5 6 3 3 2 1 3 2 2 3 3 2 2 4 6 13 12 12 13 14 15 15 15
12 11 6 7 8 9 9 7 5 4 5 4 5 7 4 3 4 4 4 4 4 2 2 2 2 4 4 5 4 4 4 3 2 4 5 12 12 12 12 13 13 14 14
9 13 10 8 8 7 8 6 6 5 5 5 4 5 6 4 3 4 4 3 4 3 3 3 4 4 4 4 4 4 4 4 3 5 4 11 12 12 12 12 13 13 13
7 10 11 10 9 8 6 6 6 5 5 5 5 5 7 5 4 5 5 4 4 4 3 3 4 3 3 3 3 3 3 3 3 5 5 6 11 11 11 11 12 13 13
7 9 11 12 11 10 8 7 6 6 5 5 6 6 6 7 6 6 5 4 3 4 5 4 4 3 3 4 4 4 2 2 2 3 5 4 4 8 9 10 11 12 13
7 9 11 12 12 12 9 7 4 5 6 6 6 6 7 8 8 6 5 4 4 4 4 3 4 3 4 4 4 3 3 1 2 3 4 4 4 3 4 7 10 10 11
8 8 10 11 13 13 11 7 6 5 6 6 6 6 7 9 9 7 5 5 5 4 4 4 4 3 3 4 4 2 1 0 2 2 3 4 4 3 2 5 9 9 11
9 8 9 10 12 12 10 7 5 5 5 5 5 7 10 8 9 8 6 6 6 4 3 3 3 3 3 3 4 2 0 1 1 1 2 3 3 3 3 4 4 6 12
8 8 9 10 10 11 10 9 9 6 5 5 5 9 10 9 9 8 7 6 5 5 5 4 3 4 3 3 3 3 2 1 1 2 2 3 2 2 3 3 3 3 4
9 8 8 9 11 11 10 8 5 5 5 5 5 6 8 9 10 9 8 6 6 6 6 5 3 2 2 3 3 2 4 3 3 1 1 2 1 2 2 2 2 3 3
10 9 8 9 11 11 11 8 8 7 5 4 4 4 5 8 9 9 9 7 7 6 5 5 4 4 2 2 3 3 2 1 4 4 2 1 1 2 2 2 2 2 4
11 10 9 9 11 13 13 13 14 10 8 6 5 5 6 7 9 10 10 8 7 6 6 5 5 3 3 2 1 2 2 2 1 4 5 3 4 4 4 4 3 3 3
9 10 10 9 11 13 14 14 13 9 6 8 8 9 7 7 8 10 9 8 7 6 6 6 5 4 2 2 2 1 2 1 1 2 4 4 4 4 4 4 4 4 4
8 7 9 11 12 13 14 14 14 14 14 15 14 12 8 6 7 9 10 7 6 6 6 6 5 4 3 2 1 0 1 0 1 1 3 4 5 4 5 6 6 4 3
Wind_Direction
131 138 145 138 133 128 121 113 105 99 100 106 109 111 111 108 104 99 92 81 72 68 67 65 62 59 59 63 68 69 67 62 56 46 48 64 68 55 46 40 10 334 67
134 140 146 139 134 130 124 117 111 108 111 108 106 110 110 109 107 103 95 83 75 73 72 69 68 65 63 62 61 60 57 51 37 349 330 114 92 70 53 37 25 33 36
132 139 145 139 137 133 128 122 116 113 115 109 106 107 109 110 109 102 95 86 81 80 78 73 69 67 64 62 61 61 58 47 357 321 308 211 141 74 56 32 22 19 13
134 142 146 141 140 137 133 128 122 120 120 115 112 109 109 113 113 106 98 92 89 88 85 79 73 68 65 60 56 52 49 21 327 321 312 99 102 73 54 29 6 359 352
137 146 142 146 145 142 139 135 131 128 127 122 114 105 104 114 119 112 104 101 98 95 90 82 75 70 65 62 59 52 35 351 324 306 290 89 90 64 47 19 353 337 330
142 138 142 147 147 147 145 142 139 136 133 125 114 104 97 103 117 120 116 114 109 100 85 71 65 72 72 66 65 59 26 339 318 293 42 70 91 50 24 354 334 322 311
139 134 147 149 153 153 151 148 145 144 139 128 119 110 98 95 121 139 131 126 116 97 73 56 53 70 73 70 69 59 11 323 303 307 63 75 65 35 1 340 332 327 316
128 137 149 156 159 159 156 151 149 151 149 141 134 121 103 86 116 153 141 133 122 97 76 63 66 80 82 74 59 34 339 313 329 349 60 75 38 19 355 345 343 344 344
131 140 150 158 163 163 159 153 152 154 154 152 144 126 112 94 100 134 136 131 117 99 88 83 83 87 86 76 55 8 332 321 312 328 68 61 25 8 353 352 350 349 351
137 144 155 159 164 164 163 157 153 154 155 154 140 133 130 121 116 122 117 118 114 108 102 96 96 100 99 92 57 339 324 318 309 43 65 40 20 359 351 359 5 16 26
149 153 161 165 168 165 164 163 154 152 153 147 142 151 152 164 147 125 118 120 123 123 119 117 122 135 134 126 331 320 325 342 354 64 50 36 22 13 27 44 49 49 48
180 177 168 171 165 160 161 159 161 158 155 168 171 176 197 192 133 123 130 133 139 137 137 145 156 209 185 124 318 316 13 4 356 70 50 45 41 49 58 57 55 52 50
177 193 190 155 153 155 152 167 168 165 162 194 180 182 179 125 122 131 140 145 149 154 161 173 185 57 49 60 8 9 18 6 3 73 56 56 51 55 55 53 50 46 45
171 178 186 153 154 157 158 172 164 160 164 187 162 164 147 142 168 155 149 158 147 134 86 60 50 53 28 32 24 16 8 8 21 93 73 68 61 58 55 52 47 42 38
174 171 174 170 168 166 162 168 168 166 163 166 152 160 146 145 145 112 99 94 91 93 87 62 49 31 23 24 6 12 9 1 24 92 86 82 73 64 56 50 44 37 31
187 168 171 176 173 169 168 170 170 168 166 163 152 169 155 148 127 109 94 86 84 82 68 62 64 34 35 12 342 353 12 11 37 89 119 89 85 75 59 46 36 28 20
195 176 172 177 175 172 175 173 170 170 170 158 156 172 154 131 122 114 114 110 110 95 70 44 41 38 33 5 356 7 29 20 20 83 110 122 99 82 66 45 27 18 11
205 183 180 178 174 171 174 176 173 175 168 158 158 161 144 129 123 115 115 113 103 88 82 67 33 37 31 14 348 345 343 53 39 73 88 91 90 78 63 40 20 9 3
220 193 180 173 172 171 170 174 183 178 164 159 158 150 134 124 121 118 117 113 98 90 89 87 60 46 27 358 321 303 329 63 111 73 84 103 97 75 43 28 14 359 352
226 200 178 168 168 164 163 171 183 181 163 152 141 133 126 127 126 121 122 115 110 106 101 103 109 69 32 343 320 319 257 95 126 132 69 89 114 105 65 45 26 0 351
234 207 182 169 167 161 167 178 184 179 147 123 121 129 132 133 130 129 124 120 117 107 91 76 80 77 27 356 8 346 318 220 148 126 94 71 75 93 67 48 36 8 339
236 217 187 173 170 167 172 176 164 127 108 97 101 116 130 132 132 131 125 122 116 109 97 85 70 85 50 36 45 16 358 352 346 33 100 104 35 77 39 25 11 345 339
223 222 202 185 173 167 159 147 127 105 91 92 107 118 129 131 129 128 126 125 121 114 109 97 81 79 80 55 59 78 76 334 323 322 319 38 18 18 342 321 304 326 332
217 215 210 193 172 161 156 160 162 162 156 159 144 136 134 131 129 126 125 124 120 118 120 113 99 92 82 78 61 53 109 128 67 320 318 341 6 346 326 315 311 299 295
223 211 204 186 165 157 161 166 168 160 135 131 135 143 141 133 126 124 124 122 124 120 116 110 102 86 81 83 69 35 29 45 188 222 285 310 327 319 320 310 296 278 267
233 217 199 177 163 159 165 170 170 164 151 149 152 155 148 137 127 124 123 121 120 117 118 118 113 103 94 90 67 70 102 81 340 310 287 301 297 292 301 288 280 264 259